CW8198 Weather Reports


Display with metric or nautical units.
time (UTC)temp
F
wind
direction
speed
MPH
gust
MPH
rain 1hr
in
rain 24hr
in
rain mn
in
humidity
%
barometer
mb
20260903215639 95 182 7.0 17.0 0.00 0.07 0.07 52 1008.1
20260903215139 95 160 10.0 17.0 0.00 0.07 0.07 51 1008.3
20260903214638 96 155 7.0 15.0 0.00 0.07 0.07 52 1008.0
20260903214139 96 203 6.0 12.0 0.00 0.07 0.07 52 1008.1
20260903213638 96 207 6.0 12.0 0.00 0.07 0.07 51 1008.1
20260903212637 96 128 8.0 16.0 0.00 0.07 0.07 51 1008.1
20260903212138 96 202 9.0 19.0 0.00 0.07 0.07 50 1008.1
20260903211636 96 209 7.0 19.0 0.00 0.07 0.07 49 1008.1
20260903211136 96 126 11.0 19.0 0.00 0.07 0.07 49 1008.1
20260903210136 95 187 8.0 17.0 0.00 0.07 0.07 50 1008.2
20260903205636 95 229 6.0 16.0 0.00 0.07 0.07 51 1008.3
20260903205135 95 155 7.0 16.0 0.00 0.07 0.07 51 1008.1
20260903204636 95 193 8.0 15.0 0.00 0.07 0.07 50 1008.3
20260903204136 96 167 8.0 15.0 0.00 0.07 0.07 51 1008.3
20260903203634 96 183 8.0 13.0 0.00 0.07 0.07 52 1008.4
20260903203135 96 75 8.0 13.0 0.00 0.07 0.07 51 1008.4
20260903202634 96 185 5.0 16.0 0.00 0.07 0.07 51 1008.4
20260903202136 95 162 8.0 16.0 0.00 0.07 0.07 51 1008.6
20260903201634 95 198 9.0 16.0 0.00 0.07 0.07 50 1008.6
20260903201134 95 193 6.0 14.0 0.00 0.07 0.07 52 1008.7
20260903200634 94 182 7.0 14.0 0.00 0.07 0.07 53 1008.7
20260903200133 94 205 7.0 18.0 0.00 0.07 0.07 55 1008.7
20260903195633 94 198 5.0 18.0 0.00 0.07 0.07 55 1008.8
20260903195134 94 223 7.0 19.0 0.00 0.07 0.07 56 1008.8
20260903194633 94 190 10.0 19.0 0.00 0.07 0.07 55 1008.8
20260903194133 93 140 7.0 13.0 0.00 0.07 0.07 56 1009.0
20260903193633 93 207 5.0 14.0 0.00 0.07 0.07 57 1009.0
20260903193132 93 195 6.0 14.0 0.00 0.07 0.07 57 1009.1
20260903192632 93 156 5.0 14.0 0.00 0.07 0.07 57 1009.1
20260903192134 93 162 6.0 15.0 0.00 0.07 0.07 58 1009.0
20260903191632 92 178 7.0 15.0 0.00 0.07 0.07 57 1009.0
20260903190632 92 153 7.0 16.0 0.00 0.07 0.07 58 1009.1
20260903190131 92 169 8.0 15.0 0.00 0.07 0.07 58 1009.3
20260903185631 92 154 5.0 13.0 0.00 0.07 0.07 58 1009.4
20260903184630 91 147 6.0 14.0 0.00 0.07 0.07 58 1009.4
20260903184130 91 189 7.0 16.0 0.00 0.07 0.07 58 1009.7
20260903183630 91 162 7.0 16.0 0.00 0.07 0.07 59 1009.7
20260903183130 91 151 6.0 13.0 0.00 0.07 0.07 58 1009.7
20260903182630 91 195 6.0 12.0 0.00 0.07 0.07 60 1009.8
20260903182132 91 187 5.0 12.0 0.00 0.07 0.07 60 1009.8
20260903181630 91 195 7.0 12.0 0.00 0.07 0.07 58 1010.0
20260903181129 91 126 7.0 13.0 0.00 0.07 0.07 57 1009.9
20260903180129 90 196 6.0 14.0 0.00 0.07 0.07 59 1010.3
20260903175628 90 217 5.0 17.0 0.00 0.07 0.07 58 1010.4
20260903175129 90 182 8.0 17.0 0.00 0.07 0.07 58 1010.3
20260903174628 90 135 6.0 11.0 0.00 0.07 0.07 59 1010.3
20260903172628 88 187 5.0 13.0 0.00 0.07 0.07 62 1010.4
20260903172129 88 195 6.0 12.0 0.00 0.07 0.07 61 1010.2
20260903171127 87 147 5.0 12.0 0.00 0.07 0.07 64 1010.3
20260903170627 87 175 6.0 11.0 0.00 0.07 0.07 65 1010.3
20260903170126 86 225 5.0 10.0 0.00 0.07 0.07 67 1010.4
20260903165626 85 189 5.0 10.0 0.00 0.07 0.07 68 1010.4
20260903165125 84 186 6.0 10.0 0.00 0.07 0.07 69 1010.5
20260903164626 83 123 4.0 9.0 0.00 0.07 0.07 71 1010.5
20260903164126 83 137 4.0 9.0 0.00 0.07 0.07 70 1010.6
20260903163626 83 178 4.0 10.0 0.00 0.07 0.07 69 1010.6
20260903163126 83 135 5.0 11.0 0.00 0.07 0.07 68 1010.6
20260903162625 83 178 4.0 7.0 0.00 0.07 0.07 69 1010.6
20260903162126 83 175 3.0 9.0 0.00 0.07 0.07 70 1010.8
20260903161124 82 144 4.0 9.0 0.00 0.07 0.07 70 1010.5
20260903160625 82 128 4.0 9.0 0.00 0.07 0.07 70 1010.6
20260903160124 82 128 4.0 8.0 0.00 0.07 0.07 70 1010.5
20260903155624 82 178 2.0 9.0 0.00 0.07 0.07 70 1010.5
20260903155123 82 137 4.0 9.0 0.00 0.07 0.07 70 1010.5
20260903154624 82 118 4.0 8.0 0.00 0.07 0.07 71 1010.5
20260903154123 81 51 3.0 11.0 0.00 0.07 0.07 71 1010.5
20260903153123 81 165 6.0 10.0 0.00 0.07 0.07 72 1010.4
20260903152622 81 178 4.0 10.0 0.00 0.07 0.07 73 1010.6
20260903152125 81 160 6.0 12.0 0.00 0.07 0.07 73 1010.5
20260903151622 81 129 4.0 12.0 0.00 0.07 0.07 72 1010.5
20260903150622 80 130 6.0 10.0 0.01 0.07 0.07 75 1010.6
20260903145621 80 108 2.0 5.0 0.01 0.07 0.07 78 1010.7
20260903145121 80 126 2.0 3.0 0.01 0.07 0.07 77 1010.9
20260903144620 80 51 1.0 2.0 0.01 0.07 0.07 78 1011.1
20260903144121 80 239 1.0 4.0 0.01 0.07 0.07 77 1011.1
20260903143621 79 129 1.0 5.0 0.01 0.07 0.07 76 1010.9
20260903143121 79 51 1.0 5.0 0.01 0.07 0.07 77 1010.7
20260903142620 79 134 2.0 7.0 0.01 0.07 0.07 77 1010.6
20260903142119 79 137 3.0 9.0 0.01 0.07 0.07 76 1010.5
20260903141618 80 51 2.0 9.0 0.01 0.07 0.07 75 1010.5
20260903141119 80 156 4.0 8.0 0.01 0.07 0.07 75 1010.5
20260903140617 79 192 4.0 9.0 0.00 0.06 0.06 77 1010.4
20260903140117 79 221 4.0 9.0 0.00 0.06 0.06 79 1010.3
20260903135617 78 163 3.0 7.0 0.00 0.06 0.06 82 1010.3
20260903135117 78 157 2.0 4.0 0.01 0.06 0.06 84 1010.4
20260903134616 76 205 1.0 4.0 0.01 0.06 0.06 86 1010.3
20260903134116 76 51 1.0 4.0 0.03 0.06 0.06 86 1010.2
20260903133616 75 165 1.0 4.0 0.03 0.06 0.06 86 1010.3
20260903133117 75 142 2.0 4.0 0.04 0.06 0.06 86 1010.3
20260903132616 75 131 2.0 6.0 0.05 0.06 0.06 87 1010.4
20260903132115 75 121 2.0 6.0 0.06 0.06 0.06 87 1010.5
20260903131615 75 193 2.0 7.0 0.06 0.06 0.06 86 1010.5
20260903131115 74 144 4.0 7.0 0.06 0.06 0.06 86 1010.5
20260903130616 74 139 1.0 3.0 0.06 0.06 0.06 86 1010.6
20260903125614 75 162 1.0 3.0 0.06 0.06 0.06 85 1010.6
20260903125113 75 102 1.0 3.0 0.05 0.05 0.06 85 1010.7
20260903124613 75 129 2.0 4.0 0.05 0.05 0.05 84 1010.9
20260903123113 76 279 3.0 7.0 0.02 0.02 0.02 83 1011.3
20260903122113 76 137 0.0 2.0 0.00 0.00 0.00 82 1010.8
20260903121612 76 26 1.0 2.0 0.00 0.00 0.00 81 1010.8
20260903121112 76 9 1.0 2.0 0.00 0.00 0.00 81 1010.9
20260903120613 76 9 1.0 3.0 0.00 0.00 0.00 81 1010.8
20260903120112 76 344 2.0 3.0 0.00 0.00 0.00 80 1010.8
20260903115612 76 325 0.0 4.0 0.00 0.00 0.00 79 1010.7
20260903115112 77 70 2.0 4.0 0.00 0.00 0.00 79 1010.6
20260903114612 77 129 2.0 3.0 0.00 0.00 0.00 79 1010.6
20260903114113 77 105 1.0 3.0 0.00 0.00 0.00 78 1010.6
20260903113611 77 9 0.0 4.0 0.00 0.00 0.00 78 1010.7
20260903113111 77 93 1.0 5.0 0.00 0.00 0.00 77 1010.5
20260903112611 78 111 3.0 5.0 0.00 0.00 0.00 76 1010.4
20260903112111 78 149 2.0 4.0 0.00 0.00 0.00 76 1010.3
20260903111610 78 153 2.0 4.0 0.00 0.00 0.00 75 1010.2
20260903111110 78 146 2.0 5.0 0.00 0.00 0.00 75 1010.2
20260903110610 78 142 3.0 7.0 0.00 0.00 0.00 75 1010.2
20260903105609 78 153 2.0 5.0 0.00 0.00 0.00 74 1010.2
20260903105105 78 178 1.0 3.0 0.00 0.00 0.00 74 1010.2
20260903104605 79 108 1.0 4.0 0.00 0.00 0.00 73 1010.4
20260903104107 79 32 1.0 4.0 0.00 0.00 0.00 72 1010.3
20260903102605 79 93 1.0 6.0 0.00 0.00 0.00 70 1010.6
20260903101604 80 238 4.0 12.0 0.00 0.00 0.00 67 1010.6
20260903101104 81 218 7.0 12.0 0.00 0.00 0.00 65 1010.6
20260903100603 82 194 6.0 11.0 0.00 0.00 0.00 64 1010.7
20260903100103 81 228 5.0 8.0 0.00 0.00 0.00 63 1010.6
20260903095603 81 205 4.0 8.0 0.00 0.00 0.00 63 1010.4
20260903094604 81 188 3.0 10.0 0.00 0.00 0.00 63 1010.0
20260903094105 81 157 4.0 10.0 0.00 0.00 0.00 63 1010.0
20260903093603 81 186 5.0 10.0 0.00 0.00 0.00 63 1009.9
20260903092102 82 178 5.0 10.0 0.00 0.00 0.00 62 1010.2
20260903091602 82 218 4.0 10.0 0.00 0.00 0.00 62 1010.0
20260903090602 82 171 3.0 9.0 0.00 0.00 0.00 61 1010.2
20260903085602 82 178 5.0 9.0 0.00 0.00 0.00 61 1010.0
20260903085102 82 178 6.0 9.0 0.00 0.00 0.00 61 1010.0
20260903084601 82 218 4.0 9.0 0.00 0.00 0.00 61 1010.2
20260903083602 83 134 4.0 10.0 0.00 0.00 0.00 60 1010.2
20260903083101 83 175 4.0 9.0 0.00 0.00 0.00 60 1010.2
20260903082602 83 123 4.0 11.0 0.00 0.00 0.00 59 1010.2
20260903081601 83 207 6.0 13.0 0.00 0.00 0.00 59 1010.2
20260903081101 83 178 5.0 13.0 0.00 0.00 0.00 59 1010.2
20260903080100 83 150 4.0 11.0 0.00 0.00 0.00 59 1010.2
20260903075600 83 168 5.0 11.0 0.00 0.00 0.00 60 1010.3
20260903075101 82 140 4.0 10.0 0.00 0.00 0.00 61 1010.2
20260903074600 82 186 4.0 10.0 0.00 0.00 0.00 61 1010.2
20260903074102 82 134 5.0 9.0 0.00 0.00 0.00 62 1010.2
20260903073600 82 191 4.0 9.0 0.00 0.00 0.00 62 1010.3
20260903073100 82 189 3.0 8.0 0.00 0.00 0.00 62 1010.0
20260903072600 82 111 4.0 7.0 0.00 0.00 0.00 62 1010.2
20260903072100 82 212 3.0 8.0 0.00 0.00 0.00 62 1010.2
20260903071059 83 153 4.0 9.0 0.00 0.00 0.00 61 1010.3
20260903070559 83 221 4.0 8.0 0.00 0.00 0.00 61 1010.3
20260903070100 83 132 4.0 10.0 0.00 0.00 0.00 61 1010.2
20260903065059 83 171 4.0 10.0 0.00 0.00 0.00 61 1010.3
20260903064559 83 184 3.0 7.0 0.00 0.00 0.00 61 1010.2
20260903064100 83 183 4.0 11.0 0.00 0.00 0.00 60 1010.3
20260903063059 83 191 4.0 9.0 0.00 0.00 0.00 60 1010.2
20260903062059 83 128 5.0 10.0 0.00 0.00 0.00 60 1010.3
20260903061559 83 128 5.0 11.0 0.00 0.00 0.00 60 1010.3
20260903061059 84 121 5.0 11.0 0.00 0.00 0.00 60 1010.3
20260903060559 84 141 6.0 10.0 0.00 0.00 0.00 59 1010.3
20260903060058 84 177 5.0 12.0 0.00 0.00 0.00 59 1010.3
20260903055558 84 162 4.0 12.0 0.00 0.00 0.00 59 1010.4
20260903055058 84 157 6.0 11.0 0.00 0.00 0.00 59 1010.4
20260903054559 84 189 4.0 9.0 0.00 0.00 0.00 59 1010.4
20260903054059 84 171 6.0 11.0 0.00 0.00 0.00 59 1010.3
20260903053558 84 182 5.0 11.0 0.00 0.00 0.00 59 1010.3
20260903052057 84 183 6.0 10.0 0.00 0.00 0.00 59 1010.4
20260903051557 84 159 4.0 9.0 0.00 0.00 0.00 59 1010.4
20260903051057 84 146 4.0 9.0 0.00 0.00 0.00 59 1010.4
20260903050557 84 168 4.0 11.0 0.00 0.00 0.00 59 1010.3
20260903050057 84 171 4.0 12.0 0.00 0.00 0.00 59 1010.4
20260903045557 84 201 5.0 12.0 0.00 0.00 0.00 59 1010.3
20260903045057 84 178 4.0 9.0 0.00 0.00 0.00 58 1010.4
20260903044558 84 184 5.0 14.0 0.00 0.00 0.00 58 1010.4
20260903044057 84 177 4.0 14.0 0.00 0.00 0.00 58 1010.4
20260903043056 84 189 4.0 10.0 0.00 0.00 0.00 58 1010.4
20260903042557 84 186 5.0 10.0 0.00 0.00 0.00 58 1010.3
20260903042056 84 160 4.0 10.0 0.00 0.00 0.00 59 1010.4
20260903041556 84 123 5.0 10.0 0.00 0.00 0.00 58 1010.4
20260903041056 84 160 4.0 10.0 0.00 0.00 0.00 58 1010.4
20260903040556 85 165 5.0 10.0 0.00 0.00 0.00 58 1010.4
20260903040055 85 135 4.0 8.0 0.00 0.00 0.00 58 1010.3
20260903035555 85 205 4.0 8.0 0.00 0.00 0.00 58 1010.4
20260903035056 85 153 4.0 8.0 0.00 0.00 0.00 58 1010.3
20260903033556 85 146 5.0 10.0 0.00 0.00 0.00 58 1010.4
20260903033055 85 156 4.0 8.0 0.00 0.00 0.00 58 1010.3
20260903032056 85 175 3.0 7.0 0.00 0.00 0.00 58 1010.2
20260903031555 85 178 3.0 8.0 0.00 0.00 0.00 57 1010.2
20260903031056 85 178 2.0 8.0 0.00 0.00 0.00 57 1010.3
20260903030555 86 175 3.0 7.0 0.00 0.00 0.00 57 1010.3
20260903030055 86 151 4.0 6.0 0.00 0.00 0.00 56 1010.3
20260903025055 86 178 4.0 9.0 0.00 0.00 0.00 56 1010.3
20260903024554 86 175 3.0 9.0 0.00 0.00 0.00 56 1010.2
20260903024054 87 162 4.0 9.0 0.00 0.00 0.00 56 1010.2
20260903023554 87 124 4.0 9.0 0.00 0.00 0.00 56 1010.0
20260903023054 87 146 3.0 6.0 0.00 0.00 0.00 56 1009.9
20260903022553 87 171 3.0 9.0 0.00 0.00 0.00 55 1009.9
20260903021553 87 182 4.0 10.0 0.00 0.00 0.00 55 1009.9
20260903021053 88 178 4.0 10.0 0.00 0.00 0.00 55 1009.9
20260903020553 88 178 3.0 9.0 0.00 0.00 0.00 55 1009.8
20260903020053 88 156 3.0 9.0 0.00 0.00 0.00 55 1009.8
20260903015552 88 0 4.0 9.0 0.00 0.00 0.00 55 1009.6
20260903015053 88 139 4.0 9.0 0.00 0.00 0.00 55 1009.6
20260903014551 89 166 4.0 10.0 0.00 0.00 0.00 55 1009.5
20260903013552 89 183 4.0 8.0 0.00 0.00 0.00 54 1009.4
20260903011550 89 139 3.0 7.0 0.00 0.00 0.00 54 1009.3
20260903011051 90 147 4.0 6.0 0.00 0.00 0.00 54 1009.3
20260903010550 90 142 2.0 6.0 0.00 0.00 0.00 53 1009.3
20260903010050 90 157 3.0 10.0 0.00 0.00 0.00 53 1009.3
20260903005550 91 153 2.0 10.0 0.00 0.00 0.00 52 1009.3
20260903005051 91 137 2.0 6.0 0.00 0.00 0.00 52 1009.3
20260903004550 92 184 3.0 9.0 0.00 0.00 0.00 51 1009.3
20260903004049 92 177 5.0 9.0 0.00 0.00 0.00 50 1009.4
20260903003549 92 182 3.0 9.0 0.00 0.00 0.00 50 1009.4
20260903003050 92 195 4.0 11.0 0.00 0.00 0.00 50 1009.4
20260903002048 93 131 6.0 11.0 0.00 0.00 0.00 49 1009.4
20260903001048 93 191 3.0 10.0 0.00 0.00 0.00 49 1009.4
20260903000548 93 173 4.0 7.0 0.00 0.00 0.00 49 1009.3
20260903000048 94 196 3.0 7.0 0.00 0.00 0.00 49 1009.5
20260902235548 94 163 4.0 10.0 0.00 0.00 0.00 48 1009.5
20260902235050 94 142 4.0 10.0 0.00 0.00 0.00 47 1009.5
20260902234548 94 169 4.0 8.0 0.00 0.00 0.00 48 1009.5
20260902234048 94 193 3.0 9.0 0.00 0.00 0.00 48 1009.5
20260902233548 94 178 4.0 15.0 0.00 0.00 0.00 47 1009.5
20260902233048 95 207 5.0 15.0 0.00 0.00 0.00 48 1009.6
20260902232548 95 168 6.0 14.0 0.00 0.00 0.00 47 1009.5
20260902232047 95 178 5.0 14.0 0.00 0.00 0.00 47 1009.5
20260902231547 95 207 5.0 13.0 0.00 0.00 0.00 47 1009.6
20260902231047 95 234 8.0 16.0 0.00 0.00 0.00 47 1009.6
20260902230546 95 225 6.0 16.0 0.00 0.00 0.00 46 1009.6
20260902230046 95 209 6.0 15.0 0.00 0.00 0.00 46 1009.6
20260902225048 96 225 7.0 16.0 0.00 0.00 0.00 47 1009.7
20260902224546 96 196 5.0 11.0 0.00 0.00 0.00 48 1009.7
20260902223546 96 223 7.0 13.0 0.00 0.00 0.00 47 1009.7
20260902222545 95 238 8.0 15.0 0.00 0.00 0.00 46 1009.6
20260902222044 95 166 6.0 11.0 0.00 0.00 0.00 47 1009.7
20260902221545 95 223 7.0 11.0 0.00 0.00 0.00 48 1009.7
20260902221044 95 229 7.0 16.0 0.00 0.00 0.00 48 1009.6
20260902220544 94 245 5.0 16.0 0.00 0.00 0.00 48 1009.7